Hourly Data Report for October 22, 2013

All times are specified in Local Standard Time (LST). Add 1 hour to adjust for Daylight Saving Time where and when it is observed.

EMERSON AUTO
MANITOBA

49°00'00.000" N
97°14'15.000" W
242.00 m
5020881
71560
WEX

Download Data

Hourly Data (October 2013)
Hourly Data Report for October 22, 2013
Temp Definition
°C
Dew Point Temp Definition
°C
Rel Hum Definition
%
Wind Dir Definition
10's deg

Wind Spd Definition
km/h
Visibility Definition
km
Stn Press Definition
kPa
Hmdx Definition


Wind Chill Definition


Weather Definition


TIME
00:00 0.2 -2.4 83 30 7   98.62     LegendNANA
01:00 0.0 -2.5 83 30 11   98.65   -4 LegendNANA
02:00 0.0 -2.4 84 30 9   98.68   -3 LegendNANA
03:00 -0.1 -2.0 87 33 9   98.68   -3 LegendNANA
04:00 -0.2 -1.7 90 33 11   98.69   -4 LegendNANA
05:00 -1.0 -2.2 92 33 9   98.72   -4 LegendNANA
06:00 -1.5 -2.6 92 33 9   98.75   -5 LegendNANA
07:00 -2.1 -2.8 95 29 11   98.78   -6 LegendNANA
08:00 -0.7 -1.5 94 30 13   98.83   -5 LegendNANA
09:00 0.5 -1.1 89 31 15   98.85     LegendNANA
10:00 1.3 -0.8 86 33 19   98.88     LegendNANA
11:00 2.4 -1.6 75 34 22   98.89     LegendNANA
12:00 3.1 -2.6 66 34 22   98.87     LegendNANA
13:00 2.8 -3.6 63 34 20   98.84     LegendNANA
14:00 2.9 -3.8 61 33 19   98.81     LegendNANA
15:00 2.5 -5.1 57 31 17   98.80     LegendNANA
16:00 2.1 -5.2 58 31 19   98.81     LegendNANA
17:00 1.3 -4.7 64 32 17   98.81     LegendNANA
18:00 0.5 -4.2 71 34 13   98.83     LegendNANA
19:00 -0.1 -4.5 72 32 9   98.84   -3 LegendNANA
20:00 -0.3 -5.2 69 33 9   98.83   -3 LegendNANA
21:00 -0.8 -5.3 72 32 9   98.81   -4 LegendNANA
22:00 -1.5 -5.3 75 30 6   98.81   -4 LegendNANA
23:00 -1.6 -5.1 77 30 7   98.80   -4 LegendNANA

Notes on Data Quality.

Legend

  • E = Estimated
  • M = Missing
  • NA = Not Available
  • ‡ = Partner data that is not subject to review by the National Climate Archives
Date modified: